Flag for Switzerland Weather past 2 weeks in Lugano, Switzerland

Now
82 °F

Passing clouds.


Feels Like: 85 °F
Forecast: 63 / 82 °F
Wind: 9 mph from Southwest

Location: Lugano Airport

Current Time: Jul 31, 2014 at 7:21:05 PM

Latest Report: Jul 31, 2014 at 6:50 PM


Visibility: N/A

Pressure: 29.80 "Hg

Humidity: 58%

Dew point: 66 °F

Location of LuganoLocation

Historic Weather in Lugano — Graph

°F

Lugano temperature yesterday

Maximum temperature yesterday: 72 °F (at 7:20 PM)
Minimum temperature yesterday: 55 °F (at 6:20 AM)
Average temperature yesterday: 63 °F

Past Weeks' High & Low Weather Summary

 TemperatureHumidityPressure
High88 °F (Jul 17, 3:50 PM)100% (Jul 17, 4:20 AM)30.15 "Hg (Jul 17, 4:20 AM)
Low55 °F (Jul 30, 6:20 AM)46% (Jul 17, 4:20 PM)29.68 "Hg (Jul 30, 5:50 AM)
Average70 °F80%29.91 "Hg
* Reported Jul 16 6:20 PM — Jul 31 6:20 PM, Lugano, Weather by CustomWeather, © 2014

Note: Actual official high and low records may vary slightly from our data, if they occured in-between our weather recording intervals... More about our weather records

Advertising

Lugano weather history for previous 24 hours

 ConditionsComfort  
Time TempWeatherWind HumidityBarometerVisibility
6:20 PM
Jul 31
82 °FPassing clouds.9 mph58%29.80 "HgN/A
5:50 PM82 °FPassing clouds.10 mph55%29.80 "HgN/A
5:20 PM82 °FPassing clouds.13 mph58%29.80 "HgN/A
4:50 PM84 °FPassing clouds.13 mph55%29.80 "HgN/A
4:20 PM82 °FPassing clouds.14 mph58%29.80 "HgN/A
3:50 PM82 °FPassing clouds.15 mph58%29.80 "HgN/A
3:20 PM82 °FPassing clouds.14 mph58%29.80 "HgN/A
2:50 PM82 °FPassing clouds.14 mph58%29.80 "HgN/A
2:20 PM84 °FPassing clouds.12 mph55%29.80 "HgN/A
1:50 PM84 °FPassing clouds.9 mph55%29.80 "HgN/A
1:20 PM82 °FPassing clouds.8 mph58%29.80 "HgN/A
12:50 PM82 °FPassing clouds.8 mph55%29.80 "HgN/A
12:20 PM81 °FPassing clouds.8 mph58%29.80 "HgN/A
11:50 AM79 °FPassing clouds.7 mph61%29.80 "HgN/A
11:20 AM79 °FPassing clouds.6 mph61%29.80 "HgN/A
10:50 AM77 °FPassing clouds.5 mph61%29.80 "HgN/A
10:20 AM75 °FPassing clouds.5 mph61%29.80 "HgN/A
9:50 AM72 °FPassing clouds.5 mph73%29.80 "HgN/A
9:20 AM70 °FSunny.2 mph78%29.80 "Hg10 mi
8:50 AM66 °FSunny.2 mph88%29.80 "Hg10 mi
8:20 AM61 °FSunny.2 mph94%29.83 "Hg10 mi
7:50 AM59 °FSunny.1 mph94%29.83 "Hg10 mi
7:20 AM57 °FSunny.1 mph100%29.83 "Hg10 mi
6:50 AM57 °FClear.3 mph94%29.83 "Hg10 mi
6:20 AM57 °FPassing clouds.2 mph100%29.80 "HgN/A
5:50 AM57 °FClear.1 mph100%29.80 "Hg10 mi
5:20 AM57 °FClear.2 mph100%29.80 "Hg10 mi
4:50 AM57 °FCool.1 mph100%29.80 "Hg6 mi
4:20 AM57 °FCool.2 mph100%29.80 "HgN/A
3:50 AM59 °FClear.1 mph94%29.80 "Hg10 mi
3:20 AM59 °FClear.2 mph100%29.80 "Hg10 mi
2:50 AM61 °FClear.2 mph94%29.80 "Hg10 mi
2:20 AM61 °FClear.1 mph94%29.80 "Hg10 mi
1:50 AM61 °FClear.2 mph94%29.80 "Hg10 mi
1:20 AM61 °FClear.1 mph100%29.80 "Hg10 mi
12:50 AM61 °FClear.2 mph100%29.80 "HgN/A
12:20 AM61 °FClear.2 mph100%29.80 "Hg10 mi
11:50 PM
Jul 30
63 °FClear.2 mph94%29.80 "Hg10 mi
11:20 PM63 °FClear.1 mph94%29.80 "Hg10 mi
10:50 PM63 °FClear.2 mph94%29.80 "Hg10 mi
10:20 PM63 °FClear.2 mph94%29.80 "Hg10 mi
9:50 PM64 °FSunny.2 mph88%29.77 "Hg10 mi
9:20 PM66 °FSunny.1 mph88%29.77 "Hg10 mi
8:50 PM66 °FSunny.2 mph88%29.77 "Hg10 mi
8:20 PM68 °FBroken clouds.1 mph83%29.77 "HgN/A
7:50 PM70 °FBroken clouds.1 mph73%29.77 "HgN/A
7:20 PM72 °FBroken clouds.2 mph65%29.77 "HgN/A
Weather by CustomWeather, © 2014

See weather overviewHow to use our weather pages